Location: Newark
(40.9833°N, 0.0333°W)
Time: 03:43:44
(UTC+00:00)

Transit 2A Rocket - Pass Details

Date: 03 November 2020
Orbit: 588 x 914 km, 66.7° (Epoch: 26 November)

Event Time Altitude Azimuth Distance (km) Brightness Sun altitude
Rises 08:11:01 0° 212° (SSW) 3,532 8.5 15.3°
Reaches altitude 10° 08:13:33 10° 214° (SW) 2,596 7.8 15.7°
Maximum altitude 08:19:39 77° 301° (WNW) 926 5.6 16.6°
Drops below altitude 10° 08:25:34 10° 27° (NNE) 2,519 7.6 17.5°
Sets 08:28:00 0° 29° (NNE) 3,421 8.3 17.8°
